Location: Lafig�re
(44.4503°N, 4.0357°E)
Time: 16:45:02
(UTC+00:00)

Meteor 1-22 Rocket - Pass Details

Date: 24 September 2020
Orbit: 786 x 941 km, 81.2° (Epoch: 25 October)

Event Time Altitude Azimuth Distance (km) Brightness Sun altitude
Rises 19:46:12 0° 190° (S) 3,477 7.3 -23.3°
Reaches altitude 10° 19:48:36 10° 191° (S) 2,563 6.6 -23.7°
Maximum altitude 19:54:29 85° 279° (W) 929 4.3 -24.7°
Drops below altitude 10° 20:00:36 10° 10° (N) 2,656 7.0 -25.7°
Sets 20:03:08 0° 11° (N) 3,612 7.7 -26.1°
